Weather in David

Panama     8°25′00″N   82°25′24″W
temp.,
°C
wind,
m/s
gust,
m/s
humid.,
%
clouds,
%
prec.,
mm/h
press.,
hPa
HPBL,
m
3 march, wed
wed301:00+22nne33710 0.1 101267
04:00+22nne337159 0.0 101156
07:00+21nne237047 0.0 101246
10:00+30ne24410 0.0 10141015
13:00+34e23280 0.0 10122049
16:00+30sw43480 0.0 1009840
19:00+24wnw017410 0.0 101128
22:00+22nne336690 0.0 101352
4 march, thu
thu401:00+22n335972 0.0 101353
04:00+21n22593 0.0 101336
07:00+21nnw22621 0.0 101330
10:00+29s22440 0.0 1015762
13:00+32ssw44430 0.0 10121460
16:00+30ssw53532 0.0 1010865
19:00+24sse11817 0.5 101126
22:00+22nne23680 0.1 101338
5 march, fri
fri501:00+22n22700 0.1 101235
04:00+21n12700 0.0 101128
07:00+21nne11720 0.0 101127
10:00+29sse12490 0.0 1013978
13:00+32s34430 0.0 10111782
16:00+30ssw42544 0.0 1008920
19:00+24ssw11753 0.1 100926
22:00+23nne336824 0.0 101261
6 march, sat
sat601:00+22n227112 0.0 101127
04:00+21nne22710 0.0 100930
07:00+21n22690 0.0 101129
10:00+29s12430 0.0 1013799
13:00+32ssw34380 0.0 10101524
16:00+30ssw43463 0.0 1008664
19:00+24se11742 0.0 100927
22:00+23ne22700 0.0 101131
7 march, sun
sun701:00+22nne23710 0.0 101135
04:00+21n22710 0.0 101033
07:00+21nne23720 0.0 101235
10:00+30ene23390 0.0 1014957
13:00+34e33220 0.0 10111873
16:00+31ssw43380 0.0 1009928
19:00+23wnw01770 0.0 101030
22:00+22nne44620 0.0 101391